Location: Iesi
(43.5167°N, 13.2333°E)
Time: 02:29:32
(UTC+00:00)

Okean 1-7 - Pass Details

Date: 08 August 2020
Orbit: 590 x 619 km, 82.5° (Epoch: 19 September)

Event Time Altitude Azimuth Distance (km) Brightness Sun altitude
Rises 21:02:18 0° 353° (N) 2,878 7.5 -23.6°
Reaches altitude 10° 21:04:33 10° 356° (N) 1,964 6.4 -23.8°
Enters shadow 21:08:33 67° 44° (NE) 656 3.1 -24.2°
